{"data":{"norad_id":64250,"epoch":"2026-05-24T23:31:03.055872Z","epoch_age_seconds":67026,"freshness":"FRESH","line1":"1 64250U 25119T   26144.97989648  .00014074  00000+0  51980-3 0  9993","line2":"2 64250  43.0029 236.4910 0002119 274.0363  86.0247 15.27591601 55835","mean_motion":15.27591601,"eccentricity":0.0002119,"inclination_deg":43.0029,"raan_deg":236.491,"arg_perigee_deg":274.0363,"mean_anomaly_deg":86.0247,"bstar":0.0005198,"rev_number":5583,"period_min":94.266032822997,"perigee_km":481.56048071915,"apogee_km":484.46823666496,"semimajor_km":6861.1513586921,"source":"CELESTRAK","updated_at":"2026-05-25T13:38:20.354937Z"}}